Regional Weather Roundup
Issued by NWS State College, PA

Home | Current Version | Previous Version | Text Only | Print | Product List | Glossary Off
Versions: 1 2 3 4 5 6 7 8 9 10 11 12 13 14 15 16 17 18 19 20 21 22 23 24 25 26 27 28 29 30 31 32 33 34 35 36 37 38 39 40 41 42 43 44 45 46 47 48 49 50

000
ASUS41 KCTP 251503
RWRCTP

REGIONAL WEATHER ROUNDUP
NATIONAL WEATHER SERVICE STATE COLLEGE PA
1100 AM EDT SUN SEP 25 2016

Note: "fair" indicates few or no clouds below 12,000 feet with no
significant weather and/or obstructions to visibility.

* = STATION THAT DOES NOT REPORT PRECIPITATION /E.G. RAIN...SNOW...ETC/
    THUNDER OR FOG.

PAZ002>004-007>009-013>016-020>023-029>032-251600-
WESTERN PENNSYLVANIA

CITY           SKY/WX    TMP DP  RH WIND       PRES   REMARKS
ERIE           SUNNY     63  45  51 SE9       30.23F
MEADVILLE      SUNNY     58  37  45 E9        30.24S
FRANKLIN*        N/A     57  43  58 SE7       30.24S
NEW CASTLE     FAIR      62  48  60 E5        30.23S
BEAVER COUNTY  NOT AVBL
BUTLER*        SUNNY     61  46  59 E6        30.25R
PITTSBURGH INT MOSUNNY   63  50  62 NE5       30.20S
PITTSBURGH     SUNNY     64  47  53 CALM      30.20S
INDIANA*       SUNNY     63  46  55 VRB3      30.25S
LATROBE        SUNNY     63  48  59 E6        30.22R
WASHINGTON CO* SUNNY     63  52  67 NE3       30.21S
$$

PAZ004>006-010>012-017>019-024>028-033>037-041-042-045-046-049>053-251600-
CENTRAL PENNSYLVANIA

CITY           SKY/WX    TMP DP  RH WIND       PRES   REMARKS
BRADFORD       SUNNY     56  44  64 E6        30.25F
DUBOIS         SUNNY     58  40  51 E10       30.23F
CLEARFIELD     SUNNY     59  44  57 E5        30.26S
JOHNSTOWN      SUNNY     58  48  69 VRB5      30.23S
ALTOONA        SUNNY     60  41  49 E7        30.25S
STATE COLLEGE  SUNNY     59  45  58 CALM      30.26S
WILLIAMSPORT   SUNNY     60  44  55 VRB5      30.25S
SELINSGROVE    SUNNY     62  44  51 CALM      30.26S
FT INDIANTOWN  SUNNY     63  41  45 NE3       30.24S
CAPITAL CITY   SUNNY     65  39  38 E3        30.25S
HARRISBURG     MOSUNNY   65  45  48 CALM      30.23F
YORK           SUNNY     63  46  54 NE6       30.24S
$$

PAZ038>040-043-044-047-048-054-055-060>062-067>071-251600-
EASTERN PENNSYLVANIA

CITY           SKY/WX    TMP DP  RH WIND       PRES   REMARKS
SCRANTON       SUNNY     56  43  61 SW3       30.24S
MOUNT POCONO   SUNNY     57  38  48 NW9       30.22S
ALLENTOWN      SUNNY     62  42  47 NW7       30.23S
QUAKERTOWN*    SUNNY     63  41  45 N7        30.23F
READING        SUNNY     62  41  46 VRB3      30.23S
LANCASTER      SUNNY     65  40  39 E6        30.24S
COATESVILLE    SUNNY     61  43  51 VRB6G16   30.24F
POTTSTOWN      SUNNY     63  44  50 VRB5      30.24F
BLUE BELL      SUNNY     63  43  48 CALM      30.21F
DOYLESTOWN     SUNNY     66  44  45 N9        30.21F
WILLOW GROVE   NOT AVBL
NORTH PHILA    SUNNY     66  43  43 N10       30.23F
PHILADELPHIA   SUNNY     66  40  38 N9G18     30.23S
$$




USA.gov is the U.S. government's official web portal to all federal, state and local government web resources and services.